User: anonymous   Login
Location: Unspecified
(0.0000°N, 0.0000°E)
Time: 03:25:30
(UTC+00:00)
Language:

GAOFEN 1 - Orbit

View from above orbital plane
View from above orbital plane
View from above satellite
View from above satellite

Ground track
Ground track

The orbit is defined by the following mean orbital elements,

1 39150U          26118.86390727 +.00000000 +00000-0 +69511-4 0 00007
2 39150  97.9114 191.9289 0018411  66.9803 293.3347 14.76518985    02
Epoch (UTC): 28 April 2026 20:44:01
Eccentricity: 0.0018411
inclination: 97.9114°
perigee height: 627 km
apogee height: 653 km
right ascension of ascending node: 191.9289°
argument of perigee: 66.9803°
revolutions per day: 14.76518985
mean anomaly at epoch: 293.3347°

The dashed part of the orbit path shows where the satellite is in the earth's shadow,  

DLR